Index of /slackware/source/kde/slack-desc

[ICO]NameLast modifiedSizeDescription

[DIR]Parent Directory  -  
[   ]zeroconf-ioslave01-Apr-2015 21:09 763  
[   ]wicd-kde01-Apr-2015 21:09 775  
[   ]umbrello01-Apr-2015 21:09 668  
[   ]sweeper01-Apr-2015 21:09 741  
[   ]svgpart01-Apr-2015 21:09 622  
[   ]superkaramba01-Apr-2015 21:09 825  
[   ]strigi-multimedia01-Apr-2015 21:09 784  
[   ]strigi01-Apr-2015 21:09 965  
[   ]step01-Apr-2015 21:09 865  
[   ]smokeqt01-Apr-2015 21:09 642  
[   ]smokekde01-Apr-2015 21:09 615  
[   ]smokegen01-Apr-2015 21:09 768  
[   ]skanlite01-Apr-2015 21:09 666  
[   ]rocs01-Apr-2015 21:09 601  
[   ]qyoto01-Apr-2015 21:09 643  
[   ]quanta01-Apr-2015 21:09 845  
[   ]qtruby01-Apr-2015 21:09 905  
[   ]pykde401-Apr-2015 21:09 605  
[   ]prison01-Apr-2015 21:09 718  
[   ]printer-applet01-Apr-2015 21:09 841  
[   ]print-manager01-Apr-2015 21:09 886  
[   ]poxml01-Apr-2015 21:09 825  
[   ]polkit-qt-101-Apr-2015 21:09 903  
[   ]polkit-kde-kcmodules-101-Apr-2015 21:09 812  
[   ]polkit-kde-agent-101-Apr-2015 21:09 759  
[   ]plasma-nm01-Apr-2015 21:09 769  
[   ]picmi01-Apr-2015 21:09 738  
[   ]perlqt01-Apr-2015 21:09 762  
[   ]perlkde01-Apr-2015 21:09 612  
[   ]partitionmanager01-Apr-2015 21:09 852  
[   ]parley01-Apr-2015 21:09 613  
[   ]palapeli01-Apr-2015 21:09 873  
[   ]pairs01-Apr-2015 21:09 662  
[   ]oxygen-icons01-Apr-2015 21:09 792  
[   ]oxygen-gtk301-Apr-2015 21:09 1.1K 
[   ]oxygen-gtk201-Apr-2015 21:09 1.1K 
[   ]okular01-Apr-2015 21:09 609  
[   ]okteta01-Apr-2015 21:09 637  
[   ]networkmanagement01-Apr-2015 21:09 845  
[   ]nepomuk-widgets01-Apr-2015 21:09 791  
[   ]nepomuk-core01-Apr-2015 21:09 733  
[   ]mplayerthumbs01-Apr-2015 21:09 823  
[   ]marble01-Apr-2015 21:09 1.0K 
[   ]lskat01-Nov-2013 02:56 807  
[   ]lokalize08-Apr-2015 19:52 1.0K 
[   ]libnm-qt01-Apr-2015 21:09 661  
[   ]libmm-qt01-Apr-2015 21:09 657  
[   ]libktorrent05-Apr-2015 20:00 949  
[   ]libkscreen01-Apr-2015 21:09 854  
[   ]libksane01-Apr-2015 21:09 670  
[   ]libkomparediff201-Apr-2015 21:09 831  
[   ]libkmahjongg01-Apr-2015 21:09 775  
[   ]libkipi01-Apr-2015 21:09 804  
[   ]libkexiv201-Apr-2015 21:09 772  
[   ]libkdegames01-Apr-2015 21:09 721  
[   ]libkdeedu01-Apr-2015 21:09 677  
[   ]libkdcraw01-Apr-2015 21:09 777  
[   ]libkcompactdisc01-Apr-2015 21:09 750  
[   ]libkcddb01-Apr-2015 21:09 637  
[   ]kwordquiz01-Apr-2015 21:09 745  
[   ]kwebkitpart01-Apr-2015 21:09 836  
[   ]kwalletmanager01-Apr-2015 21:09 833  
[   ]kwallet01-Apr-2015 21:09 728  
[   ]kuser01-Apr-2015 21:09 623  
[   ]kubrick01-Apr-2015 21:09 947  
[   ]ktux01-Apr-2015 21:09 616  
[   ]kturtle01-Apr-2015 21:09 652  
[   ]ktuberling01-Apr-2015 21:09 784  
[   ]ktouch01-Apr-2015 21:09 638  
[   ]ktorrent01-Apr-2015 21:09 1.0K 
[   ]ktimer01-Apr-2015 21:09 697  
[   ]kteatime01-Apr-2015 21:09 877  
[   ]ksystemlog01-Apr-2015 21:09 1.0K 
[   ]ksudoku01-Apr-2015 21:09 774  
[   ]kstars01-Apr-2015 21:09 609  
[   ]ksquares01-Apr-2015 21:09 762  
[   ]kspaceduel01-Apr-2015 21:09 789  
[   ]ksnapshot01-Apr-2015 21:09 646  
[   ]ksnakeduel01-Apr-2015 21:09 885  
[   ]ksirk01-Apr-2015 21:09 617  
[   ]kshisen01-Apr-2015 21:09 755  
[   ]ksecrets01-Apr-2015 21:09 783  
[   ]kscreen01-Apr-2015 21:09 887  
[   ]kscd01-Apr-2015 21:09 625  
[   ]ksaneplugin01-Apr-2015 21:09 720  
[   ]kruler01-Apr-2015 21:09 628  
[   ]kross-interpreters01-Apr-2015 21:09 845  
[   ]krfb01-Apr-2015 21:09 796  
[   ]kreversi01-Apr-2015 21:09 922  
[   ]kremotecontrol01-Apr-2015 21:09 858  
[   ]krdc01-Apr-2015 21:09 798  
[   ]kqtquickcharts01-Apr-2015 21:09 694  
[   ]kppp01-Apr-2015 21:09 752  
[   ]kplayer01-Apr-2015 21:09 935  
[   ]kpat01-Apr-2015 21:09 710  
[   ]korundum01-Apr-2015 21:09 903  
[   ]kopete-cryptography01-Apr-2015 21:09 810  
[   ]kopete01-Apr-2015 21:09 893  
[   ]konsole01-Apr-2015 21:09 651  
[   ]konquest01-Apr-2015 21:09 769  
[   ]kompare01-Apr-2015 21:09 636  
[   ]kolourpaint01-Apr-2015 21:09 1.0K 
[   ]kollision01-Apr-2015 21:09 659  
[   ]kolf01-Apr-2015 21:09 801  
[   ]koffice01-Apr-2015 21:09 951  
[   ]knetwalk01-Apr-2015 21:09 766  
[   ]knavalbattle01-Apr-2015 21:09 919  
[   ]kmplot01-Apr-2015 21:09 941  
[   ]kmouth01-Apr-2015 21:09 644  
[   ]kmousetool01-Apr-2015 21:09 677  
[   ]kmix01-Apr-2015 21:09 706  
[   ]kmines01-Apr-2015 21:09 733  
[   ]kmahjongg01-Apr-2015 21:09 813  
[   ]kmag01-Apr-2015 21:09 578  
[   ]klines01-Apr-2015 21:09 827  
[   ]klickety01-Apr-2015 21:09 788  
[   ]klettres01-Apr-2015 21:09 813  
[   ]kjumpingcube01-Apr-2015 21:09 848  
[   ]kiten01-Apr-2015 21:09 601  
[   ]kiriki01-Apr-2015 21:09 782  
[   ]kipi-plugins01-Apr-2015 21:09 968  
[   ]kio-mtp02-Dec-2015 23:07 846  
[   ]kimono01-Apr-2015 21:09 658  
[   ]killbots01-Apr-2015 21:09 657  
[   ]kigo01-Apr-2015 21:09 1.0K 
[   ]kig01-Apr-2015 21:09 692  
[   ]khangman01-Apr-2015 21:09 830  
[   ]kgpg01-Apr-2015 21:09 673  
[   ]kgoldrunner01-Apr-2015 21:09 816  
[   ]kget01-Apr-2015 21:09 589  
[   ]kgeography01-Apr-2015 21:09 1.0K 
[   ]kgamma01-Apr-2015 21:09 639  
[   ]kfourinline01-Apr-2015 21:09 798  
[   ]kfloppy01-Apr-2015 21:09 764  
[   ]kfilemetadata08-Apr-2015 19:40 741  
[   ]kdnssd01-Apr-2015 21:09 633  
[   ]kdiamond01-Apr-2015 21:09 729  
[   ]kdf01-Apr-2015 21:09 786  
[   ]kdewebdev01-Apr-2015 21:09 716  
[   ]kdevplatform01-Apr-2015 21:09 710  
[   ]kdevelop-php-docs01-Apr-2015 21:09 801  
[   ]kdevelop-php01-Apr-2015 21:09 735  
[   ]kdevelop-pg-qt01-Apr-2015 21:09 754  
[   ]kdevelop01-Apr-2015 21:09 679  
[   ]kdev-python01-Apr-2015 21:09 718  
[   ]kdeutils01-Apr-2015 21:09 657  
[   ]kdetoys01-Apr-2015 21:09 715  
[   ]kdesdk-thumbnailers01-Apr-2015 21:09 844  
[   ]kdesdk-strigi-analyzers01-Apr-2015 21:09 854  
[   ]kdesdk-kioslaves01-Apr-2015 21:09 753  
[   ]kdesdk01-Apr-2015 21:09 778  
[   ]kdeplasma-addons01-Apr-2015 21:09 763  
[   ]kdepimlibs01-Apr-2015 21:09 735  
[   ]kdepim-runtime01-Apr-2015 21:09 972  
[   ]kdepim01-Apr-2015 21:09 873  
[   ]kdenetwork-strigi-analyzers01-Apr-2015 21:09 932  
[   ]kdenetwork-filesharing01-Apr-2015 21:09 883  
[   ]kdenetwork01-Apr-2015 21:09 692  
[   ]kdemultimedia01-Apr-2015 21:09 731  
[   ]kdelibs01-Apr-2015 21:09 649  
[   ]kdegraphics-thumbnailers01-Apr-2015 21:09 927  
[   ]kdegraphics-strigi-analyzer01-Apr-2015 21:09 1.0K 
[   ]kdegraphics-mobipocket01-Apr-2015 21:09 823  
[   ]kdegraphics01-Apr-2015 21:09 807  
[   ]kdegames01-Apr-2015 21:09 646  
[   ]kdeedu01-Apr-2015 21:09 638  
[   ]kdeconnect-kde01-Apr-2015 21:09 1.1K 
[   ]kdebindings01-Apr-2015 21:09 1.0K 
[   ]kdebase-workspace01-Apr-2015 21:09 816  
[   ]kdebase-runtime01-Apr-2015 21:09 757  
[   ]kdebase01-Apr-2015 21:09 696  
[   ]kdeartwork01-Apr-2015 21:09 689  
[   ]kdeadmin01-Apr-2015 21:09 639  
[   ]kdeaccessibility01-Apr-2015 21:09 881  
[   ]kde-workspace01-Apr-2015 21:09 764  
[   ]kde-wallpapers01-Apr-2015 21:09 703  
[   ]kde-runtime01-Apr-2015 21:09 705  
[   ]kde-educational01-Apr-2015 21:09 755  
[   ]kde-dev-utils01-Apr-2015 21:09 800  
[   ]kde-dev-scripts01-Apr-2015 21:09 780  
[   ]kde-bindings01-Apr-2015 21:09 1.0K 
[   ]kde-baseapps01-Apr-2015 21:09 761  
[   ]kde-base-artwork01-Apr-2015 21:09 759  
[   ]kde-base01-Apr-2015 21:09 709  
[   ]kcron01-Apr-2015 21:09 693  
[   ]kcolorchooser01-Apr-2015 21:09 696  
[   ]kcharselect01-Apr-2015 21:09 822  
[   ]kcalc01-Apr-2015 21:09 722  
[   ]kcachegrind01-Apr-2015 21:09 743  
[   ]kbruch01-Apr-2015 21:09 640  
[   ]kbreakout01-Apr-2015 21:09 674  
[   ]kbounce01-Apr-2015 21:09 846  
[   ]kblocks01-Apr-2015 21:09 658  
[   ]kblackbox01-Apr-2015 21:09 726  
[   ]kaudiocreator01-Apr-2015 21:09 752  
[   ]katomic01-Apr-2015 21:09 817  
[   ]kate01-Apr-2015 21:09 923  
[   ]kapptemplate01-Apr-2015 21:09 757  
[   ]kapman01-Apr-2015 21:09 913  
[   ]kanagram01-Apr-2015 21:09 895  
[   ]kamera01-Apr-2015 21:09 614  
[   ]kalzium01-Apr-2015 21:09 646  
[   ]kalgebra01-Apr-2015 21:09 748  
[   ]kajongg01-Apr-2015 21:09 899  
[   ]kactivities01-Apr-2015 21:09 792  
[   ]kaccessible01-Apr-2015 21:09 763  
[   ]k3b01-Apr-2015 21:09 836  
[   ]juk01-Apr-2015 21:09 790  
[   ]jovie01-Apr-2015 21:09 684  
[   ]gwenview01-Apr-2015 21:09 752  
[   ]granatier01-Apr-2015 21:09 715  
[   ]filelight01-Apr-2015 21:09 818  
[   ]ffmpegthumbs01-Apr-2015 21:09 835  
[   ]dragon01-Apr-2015 21:09 754  
[   ]dolphin-plugins01-Apr-2015 21:09 791  
[   ]digikam01-Apr-2015 21:09 1.0K 
[   ]cervisia01-Apr-2015 21:09 634  
[   ]cantor01-Apr-2015 21:09 797  
[   ]calligra01-Apr-2015 21:09 1.0K 
[   ]bovo01-Apr-2015 21:09 787  
[   ]bomber01-Apr-2015 21:09 884  
[   ]bluedevil01-Apr-2015 21:09 694  
[   ]blinken01-Apr-2015 21:09 639  
[   ]baloo-widgets01-Apr-2015 21:09 773  
[   ]baloo01-Apr-2015 21:09 826  
[   ]audiocd-kio01-Apr-2015 21:09 656  
[   ]artikulate01-Apr-2015 21:09 893  
[   ]ark01-Apr-2015 21:09 629  
[   ]analitza01-Apr-2015 21:09 792  
[   ]amor01-Apr-2015 21:09 900  
[   ]amarok01-Apr-2015 21:09 779